• In Uzbekistan
  • List of Countries
  • For 7 days
  • Water Temperature
  • Satellite Maps
  • Weather Map
  • Weather Widgets
  • user-avatar
    Login

    Hourly Weather Escaldes-Engordany

    Today, 28 June, Wednesday

    Time Temperature Precipitation Wind Pressure Humidity
    00:00 +10°C° 0.1 mm 1 mps 634 mmHg 90%
    01:00 +10°C° 0.1 mm 1 mps 634 mmHg 91%
    02:00 +10°C° 0.1 mm 1 mps 633 mmHg 91%
    03:00 +9°C° 0.1 mm 1 mps 633 mmHg 92%
    04:00 +10°C° 0 mm 1 mps 633 mmHg 90%
    05:00 +11°C° 0 mm 1 mps 633 mmHg 88%
    06:00 +12°C° 0 mm 1 mps 634 mmHg 86%
    07:00 +13°C° 0.2 mm 2 mps 634 mmHg 78%
    08:00 +14°C° 0.2 mm 2 mps 634 mmHg 71%
    09:00 +14°C° 0.2 mm 3 mps 635 mmHg 64%
    10:00 +16°C° 0.6 mm 3 mps 635 mmHg 62%
    11:00 +16°C° 0.6 mm 3 mps 634 mmHg 61%
    12:00 +17°C° 0.6 mm 3 mps 634 mmHg 59%
    13:00 +15°C° 1 mm 4 mps 634 mmHg 62%
    14:00 +15°C° 1 mm 4 mps 634 mmHg 65%
    15:00 +15°C° 1 mm 4 mps 633 mmHg 68%
    16:00 +14°C° 0.8 mm 3 mps 633 mmHg 69%
    17:00 +13°C° 0.8 mm 3 mps 633 mmHg 69%
    18:00 +13°C° 0.8 mm 3 mps 633 mmHg 69%
    19:00 +12°C° 0.4 mm 2 mps 633 mmHg 74%
    20:00 +9°C° 0.4 mm 2 mps 633 mmHg 80%
    21:00 +8°C° 0.4 mm 2 mps 633 mmHg 85%
    22:00 +8°C° 0.2 mm 1 mps 632 mmHg 86%
    23:00 +8°C° 0.2 mm 1 mps 632 mmHg 87%

    Tomorrow, 29 June, Thursday

    Time Temperature Precipitation Wind Pressure Humidity
    00:00 +8°C° 0.2 mm 1 mps 632 mmHg 88%
    01:00 +7°C° 0 mm 2 mps 632 mmHg 88%
    02:00 +6°C° 0 mm 2 mps 632 mmHg 88%
    03:00 +6°C° 0 mm 2 mps 632 mmHg 89%
    04:00 +7°C° 0 mm 2 mps 633 mmHg 87%
    05:00 +7°C° 0 mm 2 mps 633 mmHg 85%
    06:00 +9°C° 0 mm 1 mps 634 mmHg 83%
    07:00 +9°C° 0 mm 2 mps 634 mmHg 76%
    08:00 +12°C° 0 mm 2 mps 635 mmHg 69%
    09:00 +12°C° 0 mm 3 mps 636 mmHg 61%
    10:00 +13°C° 0.2 mm 3 mps 636 mmHg 58%
    11:00 +13°C° 0.2 mm 3 mps 636 mmHg 55%
    12:00 +14°C° 0.2 mm 4 mps 636 mmHg 51%
    13:00 +14°C° 0.5 mm 4 mps 636 mmHg 52%
    14:00 +14°C° 0.5 mm 4 mps 636 mmHg 52%
    15:00 +13°C° 0.5 mm 4 mps 636 mmHg 52%
    16:00 +13°C° 0.6 mm 4 mps 635 mmHg 57%
    17:00 +12°C° 0.6 mm 3 mps 635 mmHg 62%
    18:00 +12°C° 0.6 mm 2 mps 635 mmHg 67%
    19:00 +9°C° 0.4 mm 2 mps 635 mmHg 73%
    20:00 +8°C° 0.4 mm 1 mps 635 mmHg 79%
    21:00 +6°C° 0.4 mm 1 mps 635 mmHg 85%
    22:00 +6°C° 0.1 mm 1 mps 634 mmHg 86%
    23:00 +5°C° 0.1 mm 1 mps 634 mmHg 88%

    Day after tomorrow, 30 June, Friday

    Time Temperature Precipitation Wind Pressure Humidity
    00:00 +5°C° 0.1 mm 1 mps 634 mmHg 89%
    01:00 +4°C° 0 mm 1 mps 634 mmHg 90%
    02:00 +3°C° 0 mm 1 mps 634 mmHg 91%
    03:00 +2°C° 0 mm 0 mps 633 mmHg 91%
    04:00 +4°C° 0 mm 1 mps 634 mmHg 87%
    05:00 +6°C° 0 mm 1 mps 635 mmHg 83%
    06:00 +8°C° 0 mm 1 mps 636 mmHg 79%
    07:00 +10°C° 0 mm 1 mps 637 mmHg 67%
    08:00 +10°C° 0 mm 2 mps 637 mmHg 55%
    09:00 +12°C° 0 mm 3 mps 638 mmHg 43%
    10:00 +13°C° 0.1 mm 3 mps 638 mmHg 43%
    11:00 +14°C° 0.1 mm 3 mps 639 mmHg 43%
    12:00 +14°C° 0.1 mm 3 mps 639 mmHg 43%
    13:00 +14°C° 0.5 mm 3 mps 639 mmHg 48%
    14:00 +13°C° 0.5 mm 3 mps 639 mmHg 54%
    15:00 +13°C° 0.5 mm 3 mps 638 mmHg 59%
    16:00 +12°C° 0.6 mm 3 mps 638 mmHg 64%
    17:00 +11°C° 0.6 mm 3 mps 638 mmHg 68%
    18:00 +10°C° 0.6 mm 3 mps 638 mmHg 73%
    19:00 +9°C° 0.2 mm 2 mps 638 mmHg 78%
    20:00 +8°C° 0.2 mm 2 mps 638 mmHg 83%
    21:00 +6°C° 0.2 mm 2 mps 638 mmHg 88%
    22:00 +7°C° 0.1 mm 1 mps 638 mmHg 89%
    23:00 +6°C° 0.1 mm 1 mps 638 mmHg 89%

    1 July, Saturday

    Time Temperature Precipitation Wind Pressure Humidity
    00:00 +6°C° 0.1 mm 1 mps 638 mmHg 89%
    01:00 +6°C° 0 mm 1 mps 638 mmHg 90%
    02:00 +5°C° 0 mm 1 mps 638 mmHg 90%
    03:00 +5°C° 0 mm 1 mps 637 mmHg 91%
    04:00 +6°C° 0 mm 1 mps 638 mmHg 87%
    05:00 +7°C° 0 mm 1 mps 638 mmHg 83%
    06:00 +8°C° 0 mm 1 mps 639 mmHg 79%
    07:00 +10°C° 0.1 mm 1 mps 639 mmHg 76%
    08:00 +10°C° 0.1 mm 2 mps 640 mmHg 72%
    09:00 +12°C° 0.1 mm 2 mps 641 mmHg 69%
    10:00 +12°C° 0.4 mm 3 mps 641 mmHg 66%
    11:00 +13°C° 0.4 mm 3 mps 642 mmHg 63%
    12:00 +14°C° 0.4 mm 3 mps 642 mmHg 60%
    13:00 +16°C° 0.2 mm 3 mps 642 mmHg 58%
    14:00 +15°C° 0.2 mm 4 mps 642 mmHg 55%
    15:00 +15°C° 0.2 mm 4 mps 642 mmHg 52%
    16:00 +14°C° 0.1 mm 3 mps 642 mmHg 58%
    17:00 +13°C° 0.1 mm 3 mps 642 mmHg 64%
    18:00 +12°C° 0.1 mm 3 mps 642 mmHg 70%
    19:00 +11°C° 0.2 mm 3 mps 642 mmHg 75%
    20:00 +10°C° 0.2 mm 3 mps 642 mmHg 79%
    21:00 +9°C° 0.2 mm 3 mps 643 mmHg 83%
    22:00 +8°C° 0.1 mm 3 mps 643 mmHg 85%
    23:00 +8°C° 0.1 mm 3 mps 643 mmHg 86%

    2 July, Sunday

    Time Temperature Precipitation Wind Pressure Humidity
    00:00 +8°C° 0.1 mm 3 mps 643 mmHg 88%
    01:00 +7°C° 0 mm 3 mps 643 mmHg 88%
    02:00 +7°C° 0 mm 3 mps 642 mmHg 88%
    03:00 +7°C° 0 mm 3 mps 642 mmHg 88%
    04:00 +7°C° 0 mm 3 mps 643 mmHg 84%
    05:00 +8°C° 0 mm 3 mps 643 mmHg 80%
    06:00 +8°C° 0 mm 3 mps 643 mmHg 76%
    07:00 +11°C° 0 mm 3 mps 644 mmHg 65%
    08:00 +13°C° 0 mm 3 mps 645 mmHg 54%
    09:00 +16°C° 0 mm 3 mps 646 mmHg 43%
    10:00 +18°C° 0 mm 3 mps 647 mmHg 41%
    11:00 +19°C° 0 mm 3 mps 647 mmHg 38%
    12:00 +21°C° 0 mm 3 mps 647 mmHg 36%
    13:00 +21°C° 0 mm 3 mps 647 mmHg 38%
    14:00 +21°C° 0 mm 3 mps 647 mmHg 41%
    15:00 +21°C° 0 mm 3 mps 647 mmHg 43%
    16:00 +20°C° 0 mm 3 mps 647 mmHg 48%
    17:00 +19°C° 0 mm 3 mps 646 mmHg 54%
    18:00 +18°C° 0 mm 3 mps 646 mmHg 59%
    19:00 +16°C° 0 mm 2 mps 645 mmHg 68%
    20:00 +13°C° 0 mm 2 mps 645 mmHg 77%
    21:00 +10°C° 0 mm 2 mps 644 mmHg 86%
    22:00 +9°C° 0 mm 2 mps 644 mmHg 86%
    23:00 +9°C° 0 mm 2 mps 644 mmHg 85%

    3 July, Monday

    Time Temperature Precipitation Wind Pressure Humidity
    00:00 +9°C° 0 mm 2 mps 644 mmHg 85%
    01:00 +9°C° 0 mm 2 mps 643 mmHg 85%
    02:00 +8°C° 0 mm 2 mps 643 mmHg 84%
    03:00 +8°C° 0 mm 2 mps 643 mmHg 84%
    04:00 +9°C° 0 mm 2 mps 643 mmHg 80%
    05:00 +12°C° 0 mm 2 mps 644 mmHg 76%
    06:00 +13°C° 0 mm 2 mps 644 mmHg 72%
    07:00 +15°C° 0 mm 2 mps 645 mmHg 64%
    08:00 +17°C° 0 mm 2 mps 646 mmHg 57%
    09:00 +19°C° 0 mm 2 mps 646 mmHg 49%
    10:00 +21°C° 0 mm 2 mps 647 mmHg 46%
    11:00 +23°C° 0 mm 2 mps 647 mmHg 43%
    12:00 +24°C° 0 mm 2 mps 647 mmHg 40%
    13:00 +24°C° 0 mm 2 mps 646 mmHg 41%
    14:00 +24°C° 0 mm 2 mps 646 mmHg 41%
    15:00 +24°C° 0 mm 3 mps 646 mmHg 42%
    16:00 +22°C° 0 mm 3 mps 645 mmHg 49%
    17:00 +21°C° 0 mm 2 mps 645 mmHg 55%
    18:00 +19°C° 0 mm 2 mps 644 mmHg 62%
    19:00 +17°C° 0 mm 2 mps 644 mmHg 72%
    20:00 +15°C° 0 mm 2 mps 643 mmHg 81%
    21:00 +13°C° 0 mm 2 mps 643 mmHg 91%
    22:00 +12°C° 0 mm 2 mps 642 mmHg 91%
    23:00 +12°C° 0 mm 2 mps 642 mmHg 91%
    Show more